Regional Weather Roundup
Issued by NWS

Current Version | Previous Version | Text Only | Print | Product List | Glossary On
Versions: 1 2 3 4 5 6 7 8 9 10 11 12 13 14 15 16 17 18 19 20 21 22 23 24 25 26 27 28 29 30 31 32 33 34 35 36 37 38 39 40 41 42 43 44 45 46 47 48 49 50
000
ASPQ40 PGUM 040410
RWRPQ
WEATHER ROUNDUP FOR THE MARIANAS AND MICRONESIA
NATIONAL WEATHER SERVICE TIYAN GU
200 PM CHST FRI SEP 04 2015

GUZ001>004-040500-
MARIANA ISLANDS-

CITY           SKY/WX    TMP DP  RH WIND       PRES   REMARKS
GUAM AIRPORT   LGT RAIN  79  75  89 NW3       29.78F FOG
ANDERSEN AFB   MOSUNNY   82  77  83 SW9       29.79F HX  91
ROTA AIRPORT   PTSUNNY   82  77  83 S10       29.79F HX  91
TINIAN AP      PTSUNNY   86  75  70 NE5       29.76S HX  95
SAIPAN AP      PTSUNNY   84  75  74 E8        29.77F HX  92

$$

PMZ161-040500-
REPUBLIC OF PALAU-

CITY           SKY/WX    TMP DP  RH WIND       PRES   REMARKS
KOROR AP       PTSUNNY   88  79  74 W13G18    29.85F HX 102
KOROR WSO      PTSUNNY   88  77  70 W10       29.86F HX 100

$$

PMZ171>174-040500-
FEDERATED STATES OF MICRONESIA-

CITY           SKY/WX    TMP DP  RH WIND       PRES   REMARKS
YAP AIRPORT    LGT RAIN  79  77  94 NW8       29.83F
CHUUK AP       PTSUNNY   88  82  84 SW8       29.82F HX 108
POHNPEI AP     NOT AVBL
POHNPEI WSO    PTSUNNY   88  77  70 SW6       29.86S HX 100
KOSRAE AP      PTSUNNY   90  81  74 W10       29.81F HX 108

$$

PMZ181-040500-
REPUBLIC OF THE MARSHALL ISLANDS-

CITY           SKY/WX    TMP DP  RH WIND       PRES   REMARKS
KWAJALEIN AP   SUNNY     82  72  69 W7        29.81R
MAJURO AP      NOT AVBL
MAJURO WSO     NOT AVBL

$$



USA.gov is the U.S. government's official web portal to all federal, state and local government web resources and services.